Teterboro, NJ

7:54 AM EST on November 17, 2019 (GMT -0500)
Teterboro

Weather History for KTEB - September, 2019

Change the Weather History Date:

Saturday, September 21, 2019

  Actual Average Record
Temperature  
Mean Temperature 70 °F -  
Max Temperature 86 °F 73 °F 86 °F (2007)
Min Temperature 57 °F 53 °F 46 °F (1991)
Cooling Degree Days 6    
Growing Degree Days 20 (Base 50)    
Moisture  
Dew Point 52 °F    
Average Humidity 55    
Maximum Humidity 83    
Minimum Humidity 26    
Precipitation  
Precipitation 0.00 in - - ()
Sea Level Pressure  
Sea Level Pressure 30.18 in    
Wind  
Wind Speed 2 mph ()    
Max Wind Speed 7 mph    
Max Gust Speed -    
Visibility 9.8 miles    
Events Fog    
Averages and records for this station are not official NWS values.
T = Trace of Precipitation, MM = Missing Value Source: Averaged Metar Reports

Daily Weather History Graph

Daily Weather History Graph

Search for Another Location

Airport or City:

Astronomy

Sep. 21, 2019 Rise Set
Actual Time 6:42 AM EDT 6:55 PM EDT
Civil Twilight 6:15 AM EDT 7:22 PM EDT
Nautical Twilight 5:42 AM EDT 7:54 PM EDT
Astronomical Twilight 5:10 AM EDT 8:27 PM EDT
Moon 11:28 PM EDT (9/21) 1:48 PM EDT (9/21)
Length of Visible Light 13h 07m
Length of Day
12h 13m
Waning Gibbous, 55% of the Moon is Illuminated
Sep 21
Waning Gibbous
Sep 21
Last Quarter
Sep 28
New
Oct 5
First Quarter
Oct 13
Full

Hourly Weather History & Observations

Time (EDT) Temp. Dew Point Humidity Pressure Visibility Wind Dir Wind Speed Gust Speed Precip Events Conditions
12:51 AM 63.0 °F 51.1 °F 65% 30.18 in 10.0 mi Calm Calm - N/A   Clear
1:51 AM 60.1 °F 51.1 °F 72% 30.19 in 9.0 mi Calm Calm - N/A   Clear
2:51 AM 61.0 °F 51.1 °F 70% 30.18 in 10.0 mi Calm Calm - N/A   Clear
3:51 AM 59.0 °F 51.1 °F 75% 30.18 in 10.0 mi Calm Calm - N/A   Clear
4:51 AM 57.9 °F 52.0 °F 81% 30.19 in 10.0 mi Calm Calm - N/A   Clear
5:51 AM 57.0 °F 52.0 °F 83% 30.19 in 10.0 mi Calm Calm - N/A   Clear
6:51 AM 57.9 °F 52.0 °F 81% 30.20 in 10.0 mi NW 3.5 mph - N/A Fog Shallow Fog
7:51 AM 62.1 °F 53.1 °F 72% 30.21 in 10.0 mi Calm Calm - N/A Fog Shallow Fog
8:51 AM 66.0 °F 54.0 °F 65% 30.22 in 10.0 mi Calm Calm - N/A Fog Shallow Fog
9:51 AM 72.0 °F 53.1 °F 51% 30.22 in 10.0 mi Variable 3.5 mph - N/A Fog Shallow Fog
10:51 AM 75.0 °F 53.1 °F 46% 30.22 in 10.0 mi Variable 5.8 mph - N/A Fog Shallow Fog
11:51 AM 80.1 °F 50.0 °F 35% 30.21 in 9.0 mi Variable 3.5 mph - N/A Fog Shallow Fog
12:51 PM 82.0 °F 48.9 °F 31% 30.19 in 10.0 mi North 4.6 mph - N/A Fog Shallow Fog
1:51 PM 82.9 °F 46.9 °F 28% 30.17 in 9.0 mi Variable 4.6 mph - N/A   Clear
2:51 PM 82.9 °F 48.0 °F 29% 30.15 in 10.0 mi Variable 4.6 mph - N/A   Clear
3:51 PM 84.0 °F 46.0 °F 26% 30.15 in 8.0 mi SSW 6.9 mph - N/A   Clear
4:51 PM 84.9 °F 46.0 °F 26% 30.14 in 10.0 mi Variable 5.8 mph - N/A   Clear
5:51 PM 84.0 °F 46.0 °F 26% 30.14 in 10.0 mi South 3.5 mph - N/A   Clear
6:51 PM 79.0 °F 50.0 °F 36% 30.14 in 10.0 mi SSW 3.5 mph - N/A   Clear
7:51 PM 73.9 °F 55.9 °F 53% 30.15 in 10.0 mi SSW 5.8 mph - N/A   Clear
8:51 PM 72.0 °F 57.9 °F 61% 30.16 in 10.0 mi South 3.5 mph - N/A   Clear
9:51 PM 71.1 °F 59.0 °F 66% 30.17 in 10.0 mi Calm Calm - N/A   Clear
10:51 PM 70.0 °F 60.1 °F 71% 30.17 in 10.0 mi Calm Calm - N/A   Clear
11:51 PM 66.9 °F 60.1 °F 79% 30.17 in 10.0 mi Calm Calm - N/A   Clear